Huron, SD

1:41 AM CDT on April 27, 2018 (GMT -0500)
Huron Regional

Weather History for KHON - April, 2014

Change the Weather History Date:

Tuesday, April 22, 2014

  Actual Average Record
Temperature  
Mean Temperature 50 °F 49 °F  
Max Temperature 67 °F 62 °F 92 °F (1990)
Min Temperature 32 °F 37 °F 19 °F (2015)
Degree Days  
Heating Degree Days 15 16  
Month to date heating degree days 483 447  
Since 1 July heating degree days 7904 7266  
Cooling Degree Days 0 0  
Month to date cooling degree days 0 0  
Year to date cooling degree days 0 0  
Moisture  
Dew Point 30 °F    
Average Humidity 54    
Maximum Humidity 82    
Minimum Humidity 26    
Precipitation  
Precipitation 0.00 in 0.08 in 1.70 in (1882)
Month to date precipitation 0.18 1.61  
Year to date precipitation 1.21 4.17  
Snow  
Snow 0.00 in 0.10 in 3.80 in (2013)
Month to date snowfall 2.2 3.5  
Since 1 July snowfall 28.6 43.4  
Snow Depth 0.00 in    
Sea Level Pressure  
Sea Level Pressure 30.03 in    
Wind  
Wind Speed 12 mph (SSE)    
Max Wind Speed 22 mph    
Max Gust Speed 32 mph    
Visibility 10 miles    
Events      
T = Trace of Precipitation, MM = Missing Value Source: NWS Daily Summary

Daily Weather History Graph

Daily Weather History Graph

Search for Another Location

Airport or City:

Astronomy

Apr. 22, 2014 Rise Set
Actual Time 6:37 AM CDT 8:26 PM CDT
Civil Twilight 6:06 AM CDT 8:57 PM CDT
Nautical Twilight 5:28 AM CDT 9:35 PM CDT
Astronomical Twilight 4:47 AM CDT 10:16 PM CDT
Moon 2:43 AM CDT (4/22) 1:13 PM CDT (4/22)
Length of Visible Light 14h 50m
Length of Day
13h 48m
Last Quarter, 46% of the Moon is Illuminated
Apr 22
Last Quarter
Apr 29
New
May 6
First Quarter
May 14
Full
May 21
Last Quarter

Hourly Weather History & Observations

Time (CDT) Temp. Windchill Dew Point Humidity Pressure Visibility Wind Dir Wind Speed Gust Speed Precip Events Conditions
12:55 AM 39.9 °F 36.7 °F 30.0 °F 68% 30.15 in 10.0 mi SE 4.6 mph - N/A   Clear
1:55 AM 39.9 °F 36.7 °F 30.0 °F 68% 30.15 in 10.0 mi SE 4.6 mph - N/A   Clear
2:55 AM 39.0 °F 36.8 °F 30.0 °F 70% 30.15 in 10.0 mi South 3.5 mph - N/A   Clear
3:55 AM 39.0 °F 34.8 °F 30.0 °F 70% 30.15 in 10.0 mi South 5.8 mph - N/A   Clear
4:55 AM 39.0 °F 35.7 °F 30.0 °F 70% 30.15 in 10.0 mi South 4.6 mph - N/A   Clear
5:55 AM 34.0 °F 31.0 °F 28.9 °F 82% 30.15 in 10.0 mi SE 3.5 mph - N/A   Clear
6:55 AM 34.0 °F 29.8 °F 28.9 °F 82% 30.15 in 10.0 mi SE 4.6 mph - N/A   Clear
7:55 AM 37.0 °F 33.3 °F 30.0 °F 76% 30.15 in 10.0 mi SE 4.6 mph - N/A   Clear
8:55 AM 46.0 °F 41.0 °F 32.0 °F 58% 30.14 in 10.0 mi SSE 10.4 mph - N/A   Clear
9:55 AM 54.0 °F - 32.0 °F 43% 30.13 in 10.0 mi South 12.7 mph - N/A   Clear
10:55 AM 57.9 °F - 30.9 °F 36% 30.10 in 10.0 mi SE 15.0 mph - N/A   Clear
11:55 AM 62.1 °F - 30.0 °F 30% 30.08 in 10.0 mi North - - N/A   Clear
12:55 PM 63.0 °F - 30.0 °F 29% 30.04 in - North - - N/A   Scattered Clouds
1:55 PM 64.9 °F - 28.9 °F 26% 30.00 in 10.0 mi North - - N/A   Overcast
2:55 PM 64.9 °F - 28.9 °F 26% 29.96 in 10.0 mi SSE 18.4 mph - N/A   Overcast
3:55 PM 64.0 °F - 28.0 °F 26% 29.95 in 10.0 mi SSE 17.3 mph 28.8 mph N/A   Overcast
4:55 PM 64.0 °F - 28.0 °F 26% 29.94 in 10.0 mi SSE 16.1 mph 23.0 mph N/A   Overcast
5:55 PM 64.0 °F - 28.0 °F 26% 29.92 in 10.0 mi SE 16.1 mph 27.6 mph N/A   Overcast
6:55 PM 63.0 °F - 28.9 °F 28% 29.90 in 10.0 mi SSE 11.5 mph 25.3 mph N/A   Overcast
7:55 PM 62.1 °F - 30.0 °F 30% 29.88 in 10.0 mi SSE 15.0 mph 23.0 mph N/A   Partly Cloudy
8:55 PM 60.1 °F - 30.9 °F 33% 29.86 in 10.0 mi SE 16.1 mph 24.2 mph N/A   Clear
9:55 PM 59.0 °F - 30.9 °F 35% 29.87 in 10.0 mi SE 16.1 mph 25.3 mph N/A   Mostly Cloudy
10:55 PM 57.9 °F - 32.0 °F 37% 29.86 in 10.0 mi SE 15.0 mph 26.5 mph N/A   Overcast
11:55 PM 57.9 °F - 33.1 °F 39% 29.83 in 10.0 mi SE 17.3 mph 25.3 mph N/A   Overcast